• Join FlightAware (Why Join?)
  • Login
  • US Flag 
04:26PM EST


 

Airport Tracker/Info


-or-


 

Live Flight TrackerFlight Track Log ✈ AAY876 ✈ 16-Mar-2014 ✈ KPIE - KRFD

Flight Track Log - Related Links

Times and Time Zones

All times are in EDT time to prevent confusion due to time zone crossing. See the AAY876 flight status page for this flight to view local times or setup timezone preferences in your user account.

Time Position Orientation Groundspeed Altitude Reporting Facility
EDT Latitude Longitude Course Direction KTS MPH feet Rate Location/Type
04:09PM 27.9000 -82.6833 180° South 146 168 1,000  Level Tampa TRACON
04:10PM 27.8500 -82.6833 180° South 188 216 3,000 1,920 Climbing Tampa TRACON
04:11PM 27.8333 -82.7333 249° West 246 283 4,900 2,160 Climbing Tampa TRACON
04:13PM 27.9789 -82.7728 347° North 310 357 9,800 2,040 Climbing Jacksonville Center
04:14PM 28.0728 -82.7797 356° North 317 365 11,300 1,500 Climbing Jacksonville Center
04:15PM 28.1792 -82.8008 350° North 350 403 12,800 1,800 Climbing Jacksonville Center
04:16PM 28.2939 -82.8172 353° North 391 450 15,000 2,100 Climbing Jacksonville Center
04:17PM 28.4150 -82.8406 350° North 419 482 17,100 1,920 Climbing Jacksonville Center
04:18PM 28.5339 -82.8594 352° North 429 494 18,900 1,860 Climbing Jacksonville Center
04:19PM 28.6569 -82.8831 350° North 434 499 20,900 1,800 Climbing Jacksonville Center
04:20PM 28.7969 -82.9069 351° North 445 512 22,500 1,500 Climbing Jacksonville Center
04:21PM 28.9264 -82.9258 353° North 455 524 23,900 1,500 Climbing Jacksonville Center
04:22PM 29.0556 -82.9567 348° North 467 537 25,600 1,500 Climbing Jacksonville Center
04:23PM 29.1683 -83.0211 333° Northwest 453 521 27,000 1,200 Climbing Jacksonville Center
04:24PM 29.2831 -83.0758 337° Northwest 453 521 28,000 480 Climbing Jacksonville Center
04:25PM 29.4000 -83.1214 341° North 442 509 28,000  Level Jacksonville Center
04:26PM 29.5022 -83.1717 337° Northwest 442 509 28,000  Level Jacksonville Center
04:27PM 29.6272 -83.2150 343° North 448 516 28,000 480 Level Jacksonville Center
04:28PM 29.7567 -83.2658 341° North 448 516 29,000 1,020 Climbing Jacksonville Center
04:29PM 29.8631 -83.2997 345° North 443 510 30,100 780 Climbing Jacksonville Center
04:30PM 29.9797 -83.3531 338° Northwest 438 504 30,600 960 Climbing Jacksonville Center
04:31PM 30.0964 -83.3919 344° North 438 504 32,100 900 Climbing Jacksonville Center
04:32PM 30.2069 -83.4406 339° North 438 504 32,400 540 Climbing Jacksonville Center
04:33PM 30.3217 -83.4725 346° North 425 489 33,200 420 Climbing Jacksonville Center
04:34PM 30.4361 -83.5069 345° North 414 476 33,300 180 Climbing Jacksonville Center
04:35PM 30.5489 -83.5367 347° North 414 476 33,600 300 Climbing Jacksonville Center
04:36PM 30.6614 -83.5664 347° North 414 476 34,000 240 Climbing Jacksonville Center
04:37PM 30.7697 -83.6008 345° North 408 470 34,100  Climbing Jacksonville Center
04:38PM 30.8844 -83.6333 346° North 413 475 34,000 -60 Descending Jacksonville Center
04:39PM 31.0011 -83.6658 347° North 413 475 34,000  Level Jacksonville Center
04:40PM 31.1139 -83.6981 346° North 413 475 34,000  Level Jacksonville Center
04:42PM 31.3769 -83.7761 346° North 417 480 34,000  Level Atlanta Center
04:43PM 31.4958 -83.8100 346° North 428 493 34,000  Level Atlanta Center
04:44PM 31.6169 -83.8461 346° North 433 498 34,000  Level Atlanta Center
04:45PM 31.7381 -83.8778 347° North 438 504 34,000  Level Atlanta Center
04:46PM 31.8592 -83.9167 345° North 446 513 34,000  Level Atlanta Center
04:47PM 31.9825 -83.9483 348° North 446 513 34,000  Level Atlanta Center
04:48PM 32.1161 -83.9897 345° North 451 519 34,000  Level Atlanta Center
04:49PM 32.2414 -84.0242 347° North 451 519 34,000  Level Atlanta Center
04:50PM 32.3664 -84.0633 345° North 451 519 34,000  Level Atlanta Center
04:51PM 32.4958 -84.0981 347° North 457 526 34,000  Level Atlanta Center
04:52PM 32.6211 -84.1425 343° North 457 526 34,000  Level Atlanta Center
04:53PM 32.7525 -84.1772 347° North 468 539 34,000  Level Atlanta Center
04:54PM 32.8800 -84.2219 344° North 481 554 34,000  Level Atlanta Center
04:55PM 33.0114 -84.2544 348° North 476 548 34,000  Level Atlanta Center
04:56PM 33.1281 -84.2944 344° North 481 554 34,000  Level Atlanta Center
04:57PM 33.2594 -84.3269 348° North 476 548 34,000  Level Atlanta Center
04:58PM 33.3908 -84.3697 345° North 481 554 34,000  Level Atlanta Center
04:59PM 33.5244 -84.4050 348° North 487 560 34,000  Level Atlanta Center
05:00PM 33.6558 -84.4481 345° North 487 560 34,000  Level Atlanta Center
05:01PM 33.7936 -84.4761 350° North 493 567 34,000  Level Atlanta Center
05:02PM 33.9247 -84.5119 347° North 493 567 34,000  Level Atlanta Center
05:03PM 34.0667 -84.5428 350° North 493 567 34,000  Level Atlanta Center
05:04PM 34.2208 -84.5814 348° North 507 583 34,000  Level Atlanta Center
05:05PM 34.3419 -84.6047 351° North 502 578 34,000  Level Atlanta Center
05:06PM 34.4711 -84.6408 347° North 491 565 34,000  Level Atlanta Center
05:07PM 34.6086 -84.6722 349° North 487 560 34,000  Level Atlanta Center
05:08PM 34.7358 -84.7111 346° North 482 555 34,000  Level Atlanta Center
05:09PM 34.8672 -84.7400 350° North 477 549 34,000  Level Atlanta Center
05:10PM 34.9983 -84.7767 347° North 477 549 34,000  Level Atlanta Center
05:11PM 35.1297 -84.8058 350° North 477 549 34,000  Level Atlanta Center
05:12PM 35.2567 -84.8400 348° North 472 543 34,000  Level Atlanta Center
05:13PM 35.3881 -84.8692 350° North 472 543 34,000  Level Atlanta Center
05:14PM 35.5275 -84.9089 347° North 472 543 34,000  Level Atlanta Center
05:15PM 35.6586 -84.9383 350° North 472 543 34,000  Level Atlanta Center
05:16PM 35.7878 -84.9783 346° North 472 543 34,000  Level Atlanta Center
05:17PM 35.9647 -85.0119 351° North 479 551 34,000  Level Indianapolis Center
05:18PM 36.0825 -85.0489 346° North 479 551 34,000  Level Indianapolis Center
05:19PM 36.2422 -85.0833 350° North 482 555 34,000  Level Indianapolis Center
05:20PM 36.3708 -85.1225 346° North 481 554 34,000  Level Indianapolis Center
05:21PM 36.5028 -85.1511 350° North 477 549 34,000  Level Indianapolis Center
05:22PM 36.6322 -85.1894 347° North 478 550 34,000  Level Indianapolis Center
05:23PM 36.7639 -85.2197 350° North 478 550 34,000  Level Indianapolis Center
05:24PM 36.8925 -85.2581 347° North 478 550 34,000  Level Indianapolis Center
05:26PM 37.0519 -85.2928 350° North 478 550 34,000  Level Indianapolis Center
05:27PM 37.1808 -85.3333 346° North 478 550 34,000  Level Indianapolis Center
05:28PM 37.3133 -85.3633 350° North 479 551 34,000  Level Indianapolis Center
05:29PM 37.4422 -85.4017 347° North 477 549 34,000  Level Indianapolis Center
05:30PM 37.5681 -85.4294 350° North 463 533 34,000  Level Indianapolis Center
05:31PM 37.7122 -85.4756 346° North 461 531 34,000  Level Indianapolis Center
05:32PM 37.8408 -85.5053 350° North 461 531 34,000  Level Indianapolis Center
05:33PM 37.9503 -85.5414 345° North 461 531 34,000  Level Indianapolis Center
05:34PM 38.1044 -85.5786 349° North 466 536 34,000  Level Indianapolis Center
05:35PM 38.2125 -85.6511 332° Northwest 444 511 34,000  Level Indianapolis Center
05:36PM 38.3292 -85.7111 338° Northwest 444 511 34,000  Level Indianapolis Center
05:37PM 38.4394 -85.7750 336° Northwest 442 509 34,000  Level Indianapolis Center
05:38PM 38.5497 -85.8414 335° Northwest 438 504 34,000  Level Indianapolis Center
05:39PM 38.6619 -85.9092 335° Northwest 442 509 34,000  Level Indianapolis Center
05:40PM 38.7986 -85.9875 336° Northwest 444 511 34,000  Level Indianapolis Center
05:41PM 38.8969 -86.0492 334° Northwest 445 512 34,000  Level Indianapolis Center
05:42PM 39.0114 -86.1153 336° Northwest 446 513 34,000  Level Indianapolis Center
05:43PM 39.1422 -86.2000 333° Northwest 437 503 34,000  Level Indianapolis Center
05:44PM 39.2572 -86.2631 337° Northwest 444 511 34,000  Level Indianapolis Center
05:45PM 39.3675 -86.3339 334° Northwest 445 512 34,000  Level Indianapolis Center
05:46PM 39.4817 -86.3986 336° Northwest 445 512 34,000  Level Indianapolis Center
05:47PM 39.5919 -86.4714 333° Northwest 445 512 34,000  Level Indianapolis Center
05:48PM 39.7061 -86.5375 336° Northwest 441 507 34,000  Level Indianapolis Center
05:49PM 39.8167 -86.6092 334° Northwest 440 506 34,000  Level Indianapolis Center
05:50PM 39.9289 -86.6756 336° Northwest 439 505 34,000  Level Indianapolis Center
05:51PM 40.0603 -86.7606 334° Northwest 439 505 34,000  Level Indianapolis Center
05:52PM 40.1728 -86.8256 336° Northwest 441 507 34,000  Level Chicago Center
05:53PM 40.2744 -86.9053 329° Northwest 426 490 34,000  Level Chicago Center
05:55PM 40.3419 -87.0208 307° West 400 460 34,000  Level Chicago Center
05:56PM 40.4189 -87.1311 313° West 407 468 34,000  Level Chicago Center
05:57PM 40.5000 -87.2556 311° West 401 461 34,000  Level Chicago Center
05:58PM 40.5697 -87.3717 308° West 402 463 34,000  Level Chicago Center
05:59PM 40.6422 -87.4869 310° West 408 470 34,000  Level Chicago Center
06:00PM 40.7094 -87.6078 306° West 409 471 34,000 -540 Level Chicago Center
06:01PM 40.7944 -87.7500 308° West 410 472 32,900 -960 Descending Chicago Center
06:02PM 40.8642 -87.8608 310° West 395 455 32,000 -480 Descending Chicago Center
06:03PM 40.9258 -87.9622 309° West 391 450 32,000  Level Chicago Center
06:04PM 40.9989 -88.0883 308° West 393 452 32,000  Level Chicago Center
06:05PM 41.0661 -88.2025 308° West 393 452 32,000 -780 Level Chicago Center
06:06PM 41.1339 -88.3161 308° West 389 448 30,400 -2,340 Descending Chicago Center
06:07PM 41.2144 -88.4600 307° West 400 460 27,200 -2,880 Descending Chicago Center
06:08PM 41.2842 -88.5736 309° West 395 455 24,400 -2,820 Descending Chicago Center
06:09PM 41.3489 -88.6886 307° West 387 445 21,400 -2,820 Descending Chicago Center
06:10PM 41.4092 -88.7903 308° West 356 410 18,600 -2,580 Descending Chicago Center
06:11PM 41.4622 -88.8936 304° West 339 390 16,100 -1,320 Descending Chicago Center
06:12PM 41.5233 -88.9886 311° West 334 384 15,900 -660 Descending Chicago Center
06:13PM 41.5881 -89.1069 306° West 331 381 14,800 -1,440 Descending Chicago Center
06:14PM 41.6483 -89.2036 310° West 337 388 13,000 -900 Descending Chicago Center
06:15PM 41.7111 -89.2906 314° West 329 379 13,000 -540 Level Chicago Center
06:16PM 41.7969 -89.2678 11° North 321 369 12,000 -1,200 Descending Chicago Center
06:17PM 41.8736 -89.2317 19° North 296 341 10,600 -1,980 Descending Chicago Center
06:18PM 41.9450 -89.2042 16° North 272 313 8,000 -2,700 Descending Chicago Center
06:19PM 42.0144 -89.2061 359° North 260 299 5,100 -2,400 Descending Chicago Center
06:20PM 42.0861 -89.2408 340° North 259 298 3,100 -1,980 Descending Chicago Center
06:22PM 42.1815 -89.1154 14° North  Level Estimated
06:29PM 42.1833 -89.0833 14° North  Level FlightAware Approximate